Temp
46 48 49 49 49 48 46 44 38 44 42 51 51 54 54 54 54 54 54 54 54 53 53 54 52 51 51 50 51 51 50 50 48 51 51 50 47 44 42 42 43 43 43 44
40 45 45 44 49 48 47 47 46 46 45 51 51 49 51 53 54 53 53 54 55 55 54 53 52 51 51 51 51 50 49 49 52 50 48 45 45 43 42 44 45 44 44 42
36 38 39 34 42 46 48 50 49 42 49 49 48 50 48 50 52 52 53 53 54 52 53 53 52 52 51 51 50 49 47 49 48 46 45 44 44 44 44 43 43 43 41 42
30 32 25 45 50 50 47 46 47 47 48 48 47 47 48 50 50 50 50 49 48 46 49 51 50 50 48 47 46 45 44 45 45 45 44 44 43 42 42 42 40 40 40 40
31 30 38 45 48 47 45 43 47 46 47 48 49 48 48 50 47 45 44 44 43 43 43 43 45 46 45 43 43 43 42 43 44 44 43 42 41 40 40 39 40 39 39 38
28 28 27 41 48 53 51 36 50 49 48 47 46 34 43 47 45 43 42 41 41 41 41 41 41 43 41 40 40 40 41 42 43 43 42 40 39 39 39 40 39 38 35 35
24 25 33 45 52 53 37 39 49 50 49 47 45 44 45 43 41 41 41 41 41 40 39 40 41 42 40 40 40 42 42 42 42 42 41 40 40 40 40 38 34 31 31 31
26 24 30 50 49 43 45 45 49 48 49 46 44 43 42 42 40 40 39 40 40 39 38 39 41 42 40 40 42 43 43 42 42 41 41 41 39 36 35 33 30 30 27 29
37 36 47 49 48 51 50 49 49 49 48 49 44 42 41 39 38 38 38 37 38 38 38 39 40 41 39 40 42 41 41 40 38 37 37 36 33 32 31 30 27 28 29 28
40 45 46 47 47 50 49 49 49 48 48 47 42 41 39 39 38 37 36 36 37 38 37 37 40 39 39 39 37 36 35 34 34 33 33 32 32 32 30 27 27 29 29 29
40 42 46 46 45 45 44 45 44 44 44 43 41 39 39 37 37 36 35 36 36 35 35 35 36 36 36 36 36 34 34 34 33 30 31 31 31 31 31 31 31 31 30 30
36 47 46 45 45 45 44 42 43 42 40 41 41 38 38 36 36 35 35 35 34 34 34 34 34 33 34 35 33 32 32 30 29 29 29 30 30 31 34 34 34 35 35 33
48 45 43 42 42 43 41 41 41 40 40 37 38 37 37 35 36 36 35 34 33 33 33 32 31 31 32 32 32 31 30 30 30 29 29 29 30 29 28 33 36 35 35 36
44 44 40 40 38 40 40 39 40 38 38 37 37 38 37 35 34 35 33 33 32 31 31 31 30 30 32 32 31 30 29 29 27 27 27 28 28 29 31 31 30 32 35 35
41 43 42 40 39 38 39 38 36 35 36 37 39 37 36 34 31 30 31 32 33 33 29 28 28 28 30 29 29 28 27 26 26 25 24 24 25 26 26 27 28 30 31 32
40 40 39 37 36 37 37 36 36 35 35 35 34 34 33 32 31 30 33 33 30 26 26 20 25 27 28 27 26 25 24 23 21 23 24 24 25 24 25 25 25 26 27 27
35 34 35 34 35 36 36 38 37 34 33 32 31 30 31 30 29 29 31 29 25 24 25 23 23 26 26 25 24 23 22 22 20 22 21 21 20 20 22 21 21 22 21 22
43 41 40 39 37 34 33 33 32 32 31 30 26 25 23 23 24 25 27 26 22 22 24 24 24 24 25 24 24 22 19 19 18 17 18 15 16 18 17 18 18 18 17 19
41 39 38 37 36 33 32 31 31 31 28 28 25 24 23 22 24 23 22 18 17 20 23 23 23 21 22 21 19 18 15 13 12 15 13 11 13 12 11 13 13 13 13 14
38 37 36 34 33 32 30 30 30 29 29 26 24 23 23 19 20 18 19 19 21 22 24 22 21 20 19 19 13 16 11 6 10 9 8 8 7 6 7 10 8 8 9 10
34 33 32 31 29 30 30 29 27 26 27 23 23 20 20 19 18 15 18 20 22 22 22 18 18 17 18 13 15 2 4 1 -1 3 -2 2 4 3 4 6 4 5 6 7
31 31 30 30 28 27 27 27 26 24 23 20 17 18 18 19 17 18 14 19 22 12 16 16 16 6 10 6 10 -1 4 2 1 -1 -2 -2 -2 -2 1 0 -0 2 4 4
31 30 29 28 28 27 27 25 23 22 19 18 18 19 20 21 20 15 15 20 18 10 15 7 4 2 -0 -5 -6 -8 -7 -6 -9 -7 -9 -13 -12 -8 -2 -3 -3 -1 -0 1
30 30 29 27 27 27 25 26 26 22 19 21 17 16 20 15 12 18 16 8 4 1 1 -2 -1 1 -4 -9 -10 -12 -11 -12 -14 -14 -9 -11 -16 -12 -10 -7 -5 -3 -2 -0
30 29 28 27 28 27 27 27 25 25 24 23 23 22 21 19 11 11 5 4 7 4 -1 -5 -2 -4 -11 -12 -13 -14 -14 -14 -16 -14 -16 -18 -15 -12 -12 -11 -8 -5 -3 -2
29 27 26 26 25 24 24 24 22 20 20 16 15 10 9 12 11 10 4 2 3 1 -3 -10 -11 -12 -12 -9 -10 -11 -12 -11 -15 -13 -17 -18 -17 -14 -13 -10 -9 -6 -5 -4
24 24 23 22 22 22 21 21 20 18 16 15 15 13 12 9 5 6 -3 -4 -5 -8 -10 -11 -12 -10 -10 -13 -12 -8 -8 -13 -16 -13 -20 -22 -18 -19 -16 -13 -11 -9 -7 -6
MSLP
1011.13 1010.88 1010.83 1010.88 1011.08 1011.51 1012.13 1012.25 1012.77 1011.99 1011.70 1010.44 1009.92 1009.82 1009.46 1009.54 1009.71 1010.14 1010.76 1011.32 1011.70 1012.24 1012.64 1012.95 1013.71 1014.34 1015.04 1015.46 1015.97 1016.36 1016.94 1017.28 1017.69 1018.15 1018.56 1019.14 1019.87 1020.61 1021.38 1021.99 1022.43 1022.74 1023.12 1023.12
1012.37 1011.93 1011.51 1011.30 1010.90 1011.06 1011.38 1011.43 1011.51 1011.17 1011.03 1010.18 1009.93 1009.99 1009.88 1009.91 1010.52 1010.90 1011.10 1011.48 1011.75 1012.12 1012.49 1012.83 1013.48 1014.27 1014.87 1015.23 1015.45 1015.85 1016.32 1016.55 1017.11 1018.07 1018.87 1019.74 1020.45 1021.15 1021.72 1022.16 1022.66 1023.08 1023.06 1023.02
1013.70 1013.21 1012.66 1012.17 1010.97 1010.58 1010.53 1010.28 1010.49 1010.70 1010.33 1010.30 1010.72 1011.00 1011.04 1010.97 1011.21 1011.65 1011.83 1012.01 1012.22 1012.58 1012.83 1013.09 1013.33 1013.68 1014.16 1014.41 1015.02 1015.65 1016.53 1017.36 1017.95 1018.71 1019.46 1020.25 1020.90 1021.44 1021.84 1022.21 1022.40 1022.75 1022.86 1022.80
1014.86 1014.55 1013.20 1010.90 1010.11 1009.96 1010.22 1010.16 1009.99 1010.14 1010.39 1010.85 1011.49 1011.94 1012.03 1012.07 1012.31 1012.93 1013.27 1013.56 1013.78 1013.93 1013.76 1013.71 1013.74 1014.21 1014.57 1015.07 1015.74 1016.49 1017.21 1017.74 1018.22 1018.99 1019.90 1020.65 1021.21 1021.80 1022.36 1022.74 1022.74 1022.29 1022.39 1022.35
1015.60 1015.08 1013.11 1010.99 1010.26 1010.01 1010.01 1010.32 1010.20 1010.48 1011.11 1011.58 1012.02 1012.05 1012.73 1012.94 1013.25 1013.91 1014.40 1014.86 1015.14 1015.15 1015.10 1014.98 1014.88 1015.02 1015.35 1016.12 1016.73 1017.42 1018.30 1018.67 1019.13 1019.66 1020.42 1021.07 1021.66 1022.25 1022.50 1022.35 1022.07 1022.11 1022.22 1022.09
1015.97 1015.31 1013.27 1010.73 1009.44 1009.15 1009.61 1010.57 1010.53 1010.86 1011.43 1011.91 1012.36 1013.59 1014.13 1014.30 1014.78 1015.23 1015.69 1015.99 1016.15 1016.19 1016.14 1016.07 1016.51 1016.58 1016.79 1017.64 1017.94 1018.48 1019.04 1019.58 1020.25 1020.64 1021.08 1021.51 1021.86 1022.02 1022.22 1022.05 1022.09 1022.07 1021.94 1021.80
1015.40 1014.43 1012.35 1009.98 1009.32 1009.38 1010.02 1010.49 1010.27 1010.96 1011.47 1012.24 1013.14 1013.90 1014.44 1015.30 1016.00 1016.44 1016.72 1016.94 1017.13 1017.16 1017.16 1017.32 1017.45 1017.66 1018.26 1018.83 1019.28 1019.75 1020.05 1020.34 1020.50 1020.95 1021.25 1021.53 1021.90 1022.09 1022.12 1021.93 1021.98 1022.00 1021.90 1021.70
1014.44 1013.63 1011.50 1009.03 1009.42 1009.47 1009.28 1009.65 1010.15 1011.08 1011.57 1012.54 1013.40 1014.57 1015.49 1016.37 1016.97 1017.38 1017.72 1018.03 1018.19 1018.29 1018.48 1018.67 1018.54 1018.25 1019.10 1019.55 1020.05 1020.22 1020.35 1020.67 1020.90 1021.26 1021.50 1021.79 1021.85 1021.81 1021.84 1021.93 1022.02 1021.93 1021.83 1021.60
1011.89 1010.89 1009.60 1008.82 1008.68 1008.52 1008.78 1009.58 1010.65 1011.14 1011.82 1012.55 1014.02 1015.25 1016.29 1017.27 1017.88 1018.44 1018.75 1018.91 1019.13 1019.16 1019.42 1019.67 1019.86 1019.86 1020.07 1020.56 1020.62 1020.71 1020.96 1021.28 1021.43 1021.66 1021.83 1021.89 1021.90 1021.91 1021.88 1021.79 1021.75 1021.60 1021.48 1021.19
1010.70 1009.80 1009.43 1009.16 1009.13 1009.19 1009.43 1010.12 1010.79 1011.39 1012.25 1013.20 1014.35 1015.91 1016.94 1017.85 1018.57 1019.08 1019.39 1019.60 1019.79 1019.91 1020.30 1020.64 1020.77 1020.88 1020.93 1021.05 1021.13 1021.37 1021.64 1021.82 1021.93 1022.07 1021.98 1021.81 1021.67 1021.60 1021.62 1021.44 1021.30 1021.13 1020.93 1020.62
1009.96 1009.98 1009.88 1009.84 1009.92 1010.23 1010.88 1011.30 1011.81 1012.52 1013.27 1014.26 1015.06 1016.60 1017.43 1018.39 1019.10 1019.62 1019.95 1020.26 1020.44 1020.77 1021.09 1021.41 1021.48 1021.64 1021.61 1021.58 1021.65 1021.91 1022.07 1022.20 1022.27 1022.27 1022.08 1021.76 1021.47 1021.29 1021.04 1020.61 1020.51 1020.24 1019.95 1019.74
1008.88 1008.74 1009.09 1009.87 1010.64 1011.21 1011.65 1012.47 1013.04 1013.43 1014.75 1015.62 1016.10 1016.98 1018.03 1019.01 1019.66 1020.13 1020.56 1020.91 1021.18 1021.50 1021.76 1022.08 1022.26 1022.38 1022.34 1022.21 1022.17 1022.39 1022.51 1022.53 1022.44 1022.27 1022.03 1021.78 1021.43 1020.76 1020.34 1019.84 1019.46 1019.14 1018.68 1018.48
1007.38 1008.55 1009.69 1010.36 1011.37 1012.14 1012.80 1013.52 1014.10 1014.66 1015.42 1016.19 1017.29 1017.79 1018.56 1019.43 1020.19 1020.62 1021.05 1021.44 1021.87 1022.30 1022.60 1022.83 1023.03 1023.09 1023.06 1022.93 1022.88 1022.91 1022.97 1022.92 1022.80 1022.62 1022.36 1022.01 1021.54 1021.11 1020.20 1018.88 1018.83 1018.22 1017.85 1017.43
1007.98 1008.80 1011.28 1011.59 1012.50 1013.24 1013.77 1014.57 1015.20 1015.92 1016.55 1017.14 1017.86 1018.66 1019.24 1019.94 1020.70 1021.23 1021.76 1022.23 1022.63 1023.01 1023.37 1023.64 1023.71 1023.83 1023.78 1023.60 1023.48 1023.45 1023.41 1023.34 1023.25 1023.02 1022.69 1022.26 1021.79 1021.21 1020.62 1019.78 1018.61 1017.61 1017.34 1016.96
1009.08 1008.96 1009.99 1011.74 1013.08 1014.20 1014.86 1015.38 1016.16 1017.01 1017.64 1018.23 1018.76 1019.29 1019.91 1020.57 1021.42 1022.18 1022.60 1022.90 1023.23 1023.61 1024.14 1024.32 1024.41 1024.56 1024.47 1024.36 1024.15 1024.01 1023.91 1023.77 1023.63 1023.35 1022.99 1022.58 1022.03 1021.46 1020.83 1020.08 1019.24 1018.29 1017.30 1016.60
1010.35 1010.82 1011.67 1012.57 1013.94 1014.79 1015.31 1016.09 1016.55 1017.66 1018.32 1019.04 1019.66 1020.30 1020.82 1021.36 1022.10 1022.73 1023.07 1023.38 1023.67 1024.38 1024.81 1024.94 1025.17 1025.35 1025.08 1024.90 1024.74 1024.64 1024.61 1024.42 1024.08 1023.65 1023.18 1022.73 1022.35 1021.85 1021.13 1020.51 1019.65 1018.77 1017.87 1017.05
1011.02 1012.50 1013.06 1013.87 1014.55 1015.53 1016.23 1016.70 1017.42 1018.25 1019.18 1019.68 1020.55 1021.12 1021.58 1022.23 1022.83 1023.30 1023.72 1024.32 1024.66 1025.05 1025.37 1025.63 1025.88 1025.82 1025.57 1025.44 1025.28 1025.20 1025.02 1024.73 1024.44 1024.04 1023.81 1023.53 1023.14 1022.62 1021.99 1021.28 1020.65 1019.87 1019.19 1018.46
1010.34 1011.63 1012.80 1013.28 1014.49 1015.73 1016.87 1017.60 1018.26 1019.03 1019.88 1020.63 1021.35 1021.96 1022.46 1022.89 1023.49 1024.01 1024.42 1024.97 1025.29 1025.64 1025.93 1026.23 1026.34 1026.26 1026.11 1026.00 1025.79 1025.71 1025.61 1025.46 1025.28 1025.01 1024.65 1024.45 1024.04 1023.47 1022.92 1022.25 1021.51 1020.82 1019.94 1019.01
1011.52 1012.33 1013.59 1014.56 1015.43 1016.50 1017.59 1018.30 1018.97 1019.63 1020.51 1021.34 1022.04 1022.79 1023.33 1023.71 1024.08 1024.67 1025.14 1025.52 1025.91 1026.14 1026.47 1026.72 1026.82 1026.78 1026.68 1026.64 1026.56 1026.51 1026.42 1026.39 1026.19 1025.80 1025.69 1025.31 1024.79 1024.35 1023.74 1023.08 1022.58 1021.85 1021.01 1020.03
1013.26 1013.86 1014.74 1015.73 1016.64 1017.26 1018.33 1019.15 1019.74 1020.41 1021.27 1022.02 1022.71 1023.36 1023.98 1024.49 1024.78 1025.28 1025.68 1026.13 1026.43 1026.54 1026.82 1027.17 1027.22 1027.26 1027.31 1027.22 1027.14 1027.14 1027.11 1027.14 1026.94 1026.69 1026.43 1026.11 1025.62 1025.24 1024.67 1024.00 1023.52 1022.75 1021.91 1021.09
1014.69 1015.34 1016.04 1016.88 1017.82 1018.59 1019.21 1019.84 1020.44 1021.26 1022.04 1022.64 1023.12 1023.84 1024.45 1025.01 1025.34 1025.72 1026.08 1026.34 1026.73 1026.92 1027.18 1027.43 1027.61 1027.69 1027.71 1027.72 1027.69 1027.70 1027.67 1027.72 1027.70 1027.52 1027.29 1026.92 1026.45 1026.06 1025.54 1024.88 1024.26 1023.46 1022.63 1021.86
1016.09 1016.62 1017.37 1018.06 1018.66 1019.54 1020.27 1020.75 1021.35 1022.03 1022.69 1023.39 1023.96 1024.48 1025.00 1025.54 1025.91 1026.27 1026.55 1026.70 1027.08 1027.36 1027.65 1027.88 1028.02 1028.14 1028.18 1028.16 1028.18 1028.18 1028.17 1028.10 1028.06 1027.98 1027.78 1027.37 1027.18 1026.73 1026.09 1025.49 1024.85 1024.02 1023.27 1022.52
1017.13 1017.79 1018.32 1018.87 1019.47 1020.31 1021.07 1021.75 1022.37 1022.80 1023.43 1024.06 1024.66 1025.11 1025.40 1025.85 1026.18 1026.56 1026.99 1027.38 1027.60 1027.89 1028.15 1028.31 1028.44 1028.53 1028.59 1028.61 1028.65 1028.69 1028.66 1028.62 1028.56 1028.47 1028.15 1027.87 1027.56 1027.14 1026.38 1025.86 1025.20 1024.49 1023.75 1022.94
1018.11 1018.70 1019.25 1019.87 1020.46 1021.12 1021.84 1022.60 1023.05 1023.67 1024.20 1024.82 1025.26 1025.62 1025.84 1026.45 1026.93 1027.13 1027.39 1027.79 1028.14 1028.42 1028.63 1028.77 1028.88 1028.99 1029.03 1029.00 1029.01 1029.03 1028.99 1028.90 1028.79 1028.59 1028.40 1028.11 1027.74 1027.24 1026.59 1025.97 1025.31 1024.63 1023.95 1023.16
1019.08 1019.71 1020.33 1020.90 1021.40 1021.96 1022.46 1023.08 1023.81 1024.47 1024.93 1025.40 1025.81 1026.00 1026.34 1026.79 1027.07 1027.78 1028.03 1028.34 1028.58 1028.75 1028.94 1029.13 1029.27 1029.34 1029.26 1029.22 1029.17 1029.16 1029.17 1029.02 1028.87 1028.76 1028.59 1028.32 1027.89 1027.37 1026.71 1026.01 1025.36 1024.73 1024.04 1023.35
1020.26 1021.03 1021.63 1022.07 1022.61 1023.05 1023.62 1024.08 1024.63 1025.29 1025.72 1026.17 1026.57 1027.02 1027.04 1027.31 1027.76 1028.30 1028.63 1028.82 1029.00 1029.20 1029.30 1029.51 1029.63 1029.59 1029.51 1029.41 1029.27 1029.18 1029.17 1029.04 1028.89 1028.77 1028.75 1028.49 1028.03 1027.42 1026.79 1026.11 1025.39 1024.71 1024.08 1023.30
1022.05 1022.58 1023.08 1023.65 1024.16 1024.57 1024.91 1025.22 1025.49 1025.88 1026.28 1026.52 1026.87 1027.37 1027.70 1028.18 1028.54 1028.94 1029.15 1029.32 1029.41 1029.50 1029.62 1029.88 1030.06 1029.82 1029.66 1029.53 1029.26 1029.03 1028.69 1028.69 1028.60 1028.50 1028.68 1028.68 1028.03 1027.48 1026.82 1026.11 1025.38 1024.64 1023.95 1023.18
Wind_Speed
3 3 5 6 5 6 7 6 7 9 8 10 5 7 8 7 3 5 7 7 8 7 8 7 6 6 6 8 10 10 11 12 11 10 9 8 6 5 6 6 5 4 3 5
4 1 2 4 7 6 5 4 7 5 6 4 2 1 5 5 7 7 4 6 8 9 9 9 9 8 8 11 12 12 12 14 10 6 6 7 7 6 6 5 3 3 4 5
5 1 1 6 9 8 7 6 7 6 9 3 2 5 5 7 8 7 7 7 7 2 5 5 8 10 13 12 9 9 4 4 6 9 10 9 8 7 6 5 3 4 5 6
4 3 1 9 2 5 6 3 4 4 5 4 4 4 6 5 6 7 6 7 8 7 6 3 0 3 6 7 7 8 8 10 11 13 12 9 8 6 4 2 4 3 5 5
6 4 5 5 5 7 7 3 2 7 7 6 5 5 8 8 8 7 7 6 5 6 6 9 9 6 11 11 12 12 10 12 12 12 10 7 5 3 1 3 3 4 4 6
4 5 9 9 4 4 6 2 5 5 7 8 2 4 4 4 5 8 8 7 7 7 9 12 10 10 14 12 13 13 12 12 9 7 6 5 3 1 3 4 4 4 5 5
3 3 8 8 5 5 6 10 8 7 7 6 4 4 5 7 8 8 7 8 8 10 10 10 10 13 14 13 13 9 8 6 6 5 6 4 2 3 6 5 4 5 6 6
4 4 8 7 5 9 8 2 7 6 7 6 7 8 9 8 7 8 8 8 8 9 9 7 7 12 11 11 6 5 5 4 3 3 2 3 5 4 4 4 5 6 5 5
10 9 4 4 3 4 6 9 7 8 5 11 12 6 8 8 7 6 6 6 6 9 10 8 8 8 10 5 4 5 4 4 3 2 3 4 4 5 4 4 3 5 4 5
5 2 4 2 2 4 2 5 5 4 8 8 12 10 12 10 8 7 6 6 6 9 9 7 6 6 6 5 6 6 4 4 4 4 5 4 4 4 4 4 4 5 5 7
1 2 4 3 2 5 8 9 13 11 7 12 15 11 11 10 8 6 5 5 6 6 6 6 6 6 6 5 5 4 4 4 5 3 5 5 5 5 5 6 7 7 7 7
8 10 6 5 7 7 11 9 9 15 12 10 12 13 12 9 7 7 7 5 6 6 6 6 8 8 8 7 7 6 5 4 4 4 4 5 6 8 10 15 15 18 19 14
6 7 5 11 8 5 10 9 10 12 12 15 10 12 11 10 5 8 7 7 7 8 7 8 7 8 7 6 6 7 6 6 5 6 6 6 7 7 11 9 14 18 19 21
14 16 8 1 6 9 13 13 14 12 10 11 11 10 11 9 8 8 8 8 8 10 10 8 8 9 8 8 9 7 6 7 5 5 6 7 7 8 9 11 14 14 10 14
6 7 12 16 14 13 12 14 15 12 11 11 10 11 10 12 10 9 7 8 10 11 8 7 9 10 9 9 8 8 7 6 7 6 5 7 7 8 8 9 10 11 12 12
12 15 15 16 14 13 13 12 15 12 11 10 10 10 10 10 10 9 8 7 8 8 7 6 9 8 8 8 8 6 6 8 6 6 6 7 7 9 9 10 10 11 11 12
17 10 12 13 13 11 10 10 11 10 9 11 10 9 10 10 9 9 10 10 9 8 7 8 7 8 7 10 9 6 5 6 9 7 7 8 8 8 8 8 9 9 10 11
10 11 9 15 16 14 12 11 11 11 9 9 8 8 7 6 8 7 8 8 7 8 8 7 7 8 9 10 9 7 6 6 7 6 6 7 8 8 8 9 9 10 10 11
12 16 14 13 13 13 11 11 10 10 10 9 9 8 7 6 9 8 7 7 6 5 7 6 7 6 9 9 7 5 5 5 5 6 6 7 7 8 8 8 9 10 10 10
13 14 14 14 11 13 12 9 10 10 8 9 8 7 8 6 7 7 6 8 6 3 6 5 6 6 6 7 6 5 4 4 6 6 6 6 6 7 8 8 8 9 9 10
11 12 13 13 12 10 9 8 10 9 8 5 8 7 7 6 5 5 4 4 5 4 5 5 4 3 4 4 4 3 3 3 3 4 4 5 6 7 7 7 8 8 8 9
9 11 11 11 11 10 7 8 9 9 8 8 7 7 8 8 6 6 3 4 3 4 3 2 2 3 3 4 3 3 2 2 3 3 3 4 4 6 6 7 8 8 8 8
9 8 9 9 10 10 9 8 6 8 7 6 6 5 5 4 3 3 3 3 3 3 3 1 1 3 4 3 2 2 2 2 3 3 3 3 3 4 5 7 7 7 8 8
9 8 9 9 9 9 10 7 7 7 6 6 5 4 6 4 3 3 4 4 4 3 2 0 2 3 3 1 1 1 1 2 3 3 2 3 3 4 4 5 6 7 7 9
9 9 9 8 8 6 9 8 9 7 7 6 5 5 5 2 3 2 2 1 3 2 1 2 3 3 1 1 1 1 2 2 2 1 2 2 4 5 5 5 6 7 7 8
10 8 8 11 8 7 6 6 5 4 4 3 2 1 3 3 4 3 2 2 2 2 1 1 1 1 1 2 2 3 3 3 2 1 2 3 4 4 5 6 6 7 7 8
11 10 9 8 7 6 5 4 3 3 2 2 2 2 4 3 3 3 3 2 1 1 1 2 2 2 2 2 3 3 3 3 2 1 2 3 4 4 5 6 6 7 7 8
Wind_Direction
239 187 175 192 217 175 203 206 160 248 202 252 279 250 255 232 225 180 180 185 191 187 199 215 188 177 168 168 176 178 182 185 192 196 183 178 161 124 118 145 187 198 228 255
166 95 24 233 228 229 219 229 265 252 262 244 294 335 39 136 94 76 115 195 196 195 199 203 183 181 176 187 190 178 186 196 186 172 108 97 101 113 116 112 102 227 253 274
223 79 19 329 223 216 224 208 187 196 227 162 96 53 27 80 91 86 57 40 46 249 222 204 191 179 192 191 173 184 152 101 94 99 102 102 104 100 99 100 45 336 315 282
188 56 320 239 283 219 195 273 233 132 118 97 120 102 78 54 106 83 64 43 30 10 4 345 61 68 77 87 94 96 92 103 108 111 109 106 96 91 80 11 272 273 275 277
141 191 289 293 185 160 172 233 316 138 128 141 155 72 18 28 43 66 64 51 38 26 34 37 39 71 90 81 90 91 90 93 98 100 99 102 102 90 252 258 266 272 263 290
148 157 208 230 233 164 121 299 196 166 165 162 108 77 249 79 48 56 53 44 47 48 58 59 49 66 79 81 87 90 94 90 87 91 98 109 136 242 254 263 256 274 293 294
135 194 285 242 212 131 129 231 162 173 172 149 156 191 127 90 64 59 56 57 57 59 69 79 83 86 84 87 83 90 91 98 86 52 34 35 314 248 255 248 274 289 290 282
86 73 274 186 121 165 207 67 140 157 154 124 115 108 101 92 80 65 62 59 57 74 60 41 65 98 98 94 97 80 68 69 96 136 160 225 244 272 274 266 272 283 281 281
172 207 239 237 215 189 162 149 175 152 156 138 131 125 115 110 96 84 79 72 66 79 72 53 48 72 90 84 95 90 87 80 70 7 308 291 282 281 285 270 251 266 262 267
100 216 217 137 50 76 94 121 118 99 127 137 125 126 120 116 109 96 79 79 80 82 78 70 65 63 76 75 65 62 45 7 340 320 303 293 281 267 263 261 266 262 261 269
6 342 81 26 54 120 92 88 88 69 84 124 121 119 121 115 110 105 98 89 85 88 84 79 68 56 37 38 35 24 1 332 315 294 295 293 271 254 250 240 229 253 254 253
213 194 157 165 133 126 112 111 108 114 98 94 118 121 121 113 116 119 112 104 89 84 82 65 63 48 31 25 32 26 5 346 329 326 322 312 302 302 255 255 259 255 252 240
170 101 74 103 83 78 110 108 101 103 111 115 108 117 118 120 108 105 97 92 80 80 73 68 64 51 24 24 37 31 17 1 351 347 334 324 319 310 309 300 264 270 267 261
114 108 74 41 138 107 107 105 99 93 95 107 116 110 108 101 94 85 75 84 83 81 73 59 54 41 18 21 23 19 12 360 354 338 332 328 321 315 310 309 309 308 287 270
41 65 113 116 111 110 114 118 107 107 110 107 109 112 113 107 94 87 79 92 98 86 66 57 49 35 28 23 17 12 2 352 348 333 327 321 320 319 314 311 309 310 311 307
96 102 112 115 122 127 127 126 121 122 115 109 104 101 100 100 105 102 98 109 102 77 61 50 51 23 17 18 13 11 1 346 339 334 335 342 343 338 336 332 324 316 308 303
110 111 119 122 132 132 129 124 118 115 113 110 113 114 113 110 104 104 97 87 80 75 68 59 36 18 17 18 12 9 357 356 346 355 353 344 339 330 326 325 333 342 350 345
103 116 126 138 138 129 122 117 117 119 122 121 112 107 104 100 111 106 101 97 82 77 66 54 35 21 25 19 14 15 4 5 359 348 351 348 335 343 338 341 338 343 339 337
114 114 116 119 121 119 122 121 118 117 119 123 117 110 103 100 112 103 97 83 74 72 62 45 33 28 24 21 21 14 359 13 352 358 349 340 342 346 339 345 343 340 338 338
100 104 107 108 113 123 117 113 119 114 114 111 110 104 101 102 114 104 94 85 74 66 84 58 40 31 25 19 22 15 3 20 4 358 353 341 345 341 332 341 341 335 337 338
105 107 108 107 100 100 106 113 117 113 117 110 115 111 105 107 109 124 117 101 75 57 96 65 46 20 26 357 13 16 12 16 350 337 333 333 344 336 326 341 332 329 333 332
100 100 103 110 109 104 96 101 105 108 108 103 99 111 111 109 101 86 64 97 92 63 77 62 44 43 29 6 31 19 1 15 347 325 336 341 343 330 320 334 328 327 330 326
99 108 108 110 114 112 101 98 97 110 109 109 118 118 109 117 116 114 125 92 95 107 102 84 54 62 41 43 33 24 22 359 332 316 326 324 305 307 315 323 318 317 322 322
108 104 99 99 105 109 118 121 109 94 93 98 106 113 127 111 41 49 85 99 103 103 117 233 65 52 54 38 36 22 351 321 324 311 325 322 301 303 302 311 313 315 315 317
101 102 105 110 107 104 104 111 108 107 94 87 85 86 94 75 138 159 107 107 133 114 93 353 54 40 34 16 335 281 260 284 291 265 335 318 309 311 305 302 304 309 313 313
90 83 79 77 76 77 75 78 89 92 107 104 86 63 68 71 84 94 80 75 75 72 98 295 285 339 343 310 295 249 248 296 326 292 332 310 307 307 308 310 306 310 310 308
71 73 77 70 61 66 71 83 100 111 85 83 108 139 122 107 96 98 71 36 359 341 295 298 291 298 318 314 306 277 255 272 277 245 318 303 306 297 301 301 301 302 302 304